"read_dt","SO2 (ppb)","flags","PMT voltage (V)","lamp voltage (V)","lamp intensity (Hz)","internal temp (C)","react chamber temp (C)","sample flow (l/min)","pres (mmHg)","SO2 bkg (ppb)","SO2 coefficient"
2014-11-24 00:00:00,2276E-3,5C000000,-0724,0833,12174,027.5,045.4,0.477,734.5,01.18,0.508
2014-11-24 00:01:00,2150E-3,5C000000,-0724,0833,12213,027.5,045.4,0.476,734.5,01.18,0.508
2014-11-24 00:02:00,2295E-3,5C000000,-0724,0832,12155,027.5,045.4,0.477,734.5,01.18,0.508
2014-11-24 00:03:00,2344E-3,5C000000,-0724,0833,12124,027.5,045.4,0.477,734.5,01.18,0.508
2014-11-24 00:04:00,2357E-3,5C000000,-0724,0833,12062,027.5,045.4,0.477,734.5,01.18,0.508
2014-11-24 00:05:00,2147E-3,5C000000,-0724,0834,12295,027.5,045.4,0.477,734.4,01.18,0.508
2014-11-24 00:06:00,2229E-3,5C000000,-0724,0832,12053,027.5,045.5,0.476,734.5,01.18,0.508
2014-11-24 00:07:00,2147E-3,5C000000,-0724,0833,12369,027.5,045.4,0.477,734.5,01.18,0.508
2014-11-24 00:08:00,2225E-3,5C000000,-0724,0833,12128,027.5,045.4,0.476,734.5,01.18,0.508
2014-11-24 00:09:00,2237E-3,5C000000,-0724,0833,12299,027.5,045.4,0.477,734.4,01.18,0.508
2014-11-24 00:10:00,2223E-3,5C000000,-0724,0834,12406,027.5,045.4,0.477,734.4,01.18,0.508
2014-11-24 00:11:00,2134E-3,5C000000,-0724,0833,12280,027.5,045.4,0.476,734.4,01.18,0.508
2014-11-24 00:12:00,2161E-3,5C000000,-0724,0833,12343,027.5,045.4,0.477,734.4,01.18,0.508
2014-11-24 00:13:00,2060E-3,5C000000,-0724,0833,12211,027.4,045.4,0.477,734.4,01.18,0.508
2014-11-24 00:14:00,2219E-3,5C000000,-0724,0834,12320,027.4,045.4,0.476,734.4,01.18,0.508
2014-11-24 00:15:00,2075E-3,5C000000,-0724,0833,12302,027.4,045.4,0.477,734.4,01.18,0.508
2014-11-24 00:16:00,2250E-3,5C000000,-0724,0833,12157,027.4,045.4,0.477,734.4,01.18,0.508
2014-11-24 00:17:00,2154E-3,5C000000,-0724,0833,12307,027.4,045.4,0.476,734.4,01.18,0.508
2014-11-24 00:18:00,2176E-3,5C000000,-0724,0833,12018,027.4,045.4,0.477,734.4,01.18,0.508
2014-11-24 00:19:00,2224E-3,5C000000,-0724,0833,12151,027.4,045.4,0.476,734.4,01.18,0.508
2014-11-24 00:20:00,2233E-3,5C000000,-0724,0834,12357,027.4,045.4,0.477,734.4,01.18,0.508
2014-11-24 00:21:00,2156E-3,5C000000,-0724,0832,12173,027.4,045.4,0.477,734.4,01.18,0.508
2014-11-24 00:22:00,2172E-3,5C000000,-0724,0833,12094,027.4,045.4,0.476,734.4,01.18,0.508
2014-11-24 00:23:00,2249E-3,5C000000,-0724,0833,12192,027.4,045.4,0.477,734.4,01.18,0.508
2014-11-24 00:24:00,2265E-3,5C000000,-0724,0833,12214,027.4,045.4,0.477,734.4,01.18,0.508
2014-11-24 00:25:00,2240E-3,5C000000,-0724,0832,12106,027.4,045.4,0.477,734.4,01.18,0.508
2014-11-24 00:26:00,2228E-3,5C000000,-0724,0834,12276,027.4,045.4,0.477,734.3,01.18,0.508
2014-11-24 00:27:00,2287E-3,5C000000,-0724,0833,12064,027.4,045.4,0.476,734.3,01.18,0.508
2014-11-24 00:28:00,2172E-3,5C000000,-0724,0833,12258,027.4,045.4,0.477,734.3,01.18,0.508
2014-11-24 00:29:00,2142E-3,5C000000,-0724,0833,12232,027.4,045.4,0.476,734.3,01.18,0.508
2014-11-24 00:30:00,2248E-3,5C000000,-0724,0833,12131,027.4,045.4,0.477,734.3,01.18,0.508
2014-11-24 00:31:00,2154E-3,5C000000,-0724,0832,12107,027.4,045.4,0.477,734.3,01.18,0.508
2014-11-24 00:32:00,2210E-3,5C000000,-0724,0833,12200,027.4,045.4,0.476,734.3,01.18,0.508
2014-11-24 00:33:00,2089E-3,5C000000,-0724,0833,12104,027.4,045.4,0.477,734.3,01.18,0.508
2014-11-24 00:34:00,1992E-3,5C000000,-0724,0833,12256,027.4,045.4,0.476,734.3,01.18,0.508
2014-11-24 00:35:00,2049E-3,5C000000,-0724,0833,12265,027.4,045.4,0.477,734.2,01.18,0.508
2014-11-24 00:36:00,2115E-3,5C000000,-0724,0833,12099,027.4,045.4,0.476,734.2,01.18,0.508
2014-11-24 00:37:00,2151E-3,5C000000,-0724,0833,12069,027.4,045.4,0.477,734.2,01.18,0.508
2014-11-24 00:38:00,2101E-3,5C000000,-0724,0833,12112,027.4,045.4,0.477,734.2,01.18,0.508
2014-11-24 00:39:00,2101E-3,5C000000,-0724,0833,12283,027.4,045.4,0.476,734.2,01.18,0.508
2014-11-24 00:40:00,2211E-3,5C000000,-0724,0834,12140,027.4,045.4,0.477,734.2,01.18,0.508
2014-11-24 00:41:00,2136E-3,5C000000,-0724,0833,12071,027.4,045.4,0.476,734.2,01.18,0.508
2014-11-24 00:42:00,2185E-3,5C000000,-0724,0833,12275,027.4,045.4,0.477,734.2,01.18,0.508
2014-11-24 00:43:00,2130E-3,5C000000,-0724,0833,12154,027.3,045.4,0.476,734.2,01.18,0.508
2014-11-24 00:44:00,2006E-3,5C000000,-0724,0833,12261,027.3,045.4,0.477,734.2,01.18,0.508
2014-11-24 00:45:00,2257E-3,5C000000,-0724,0834,12242,027.4,045.4,0.477,734.2,01.18,0.508
2014-11-24 00:46:00,2032E-3,5C000000,-0724,0834,12143,027.3,045.4,0.477,734.2,01.18,0.508
2014-11-24 00:47:00,2074E-3,5C000000,-0724,0834,12126,027.3,045.4,0.477,734.1,01.19,0.508
2014-11-24 00:48:00,2033E-3,5C000000,-0724,0833,12063,027.3,045.4,0.477,734.1,01.19,0.508
2014-11-24 00:49:00,2186E-3,5C000000,-0724,0832,12025,027.3,045.4,0.477,734.1,01.19,0.508
2014-11-24 00:50:00,2130E-3,5C000000,-0724,0834,12164,027.3,045.4,0.476,734.1,01.19,0.508
2014-11-24 00:51:00,2158E-3,5C000000,-0724,0833,12126,027.3,045.4,0.477,734.1,01.19,0.508
2014-11-24 00:52:00,2090E-3,5C000000,-0724,0833,12158,027.3,045.4,0.476,734.1,01.19,0.508
2014-11-24 00:53:00,2133E-3,5C000000,-0724,0833,11944,027.3,045.4,0.477,734.2,01.18,0.508
2014-11-24 00:54:00,2330E-3,5C000000,-0724,0833,12007,027.3,045.4,0.476,734.2,01.18,0.508
2014-11-24 00:55:00,2145E-3,5C000000,-0724,0833,12203,027.3,045.4,0.477,734.1,01.19,0.508
2014-11-24 00:56:00,2276E-3,5C000000,-0724,0833,12216,027.3,045.4,0.477,734.1,01.19,0.508
2014-11-24 00:57:00,2159E-3,5C000000,-0724,0832,12232,027.3,045.4,0.477,734.2,01.18,0.508
2014-11-24 00:58:00,2144E-3,5C000000,-0724,0833,12262,027.3,045.4,0.477,734.2,01.18,0.508
2014-11-24 00:59:00,2106E-3,5C000000,-0724,0833,12057,027.3,045.4,0.477,734.2,01.18,0.508
2014-11-24 01:00:00,2109E-3,5C000000,-0724,0833,12271,027.3,045.4,0.477,734.1,01.19,0.508
2014-11-24 01:01:00,2102E-3,5C000000,-0724,0833,12202,027.3,045.4,0.477,734.1,01.19,0.508
2014-11-24 01:02:00,2246E-3,5C000000,-0724,0832,12195,027.3,045.4,0.477,734.1,01.19,0.508
2014-11-24 01:03:00,2049E-3,5C000000,-0724,0833,12006,027.3,045.4,0.476,734.1,01.19,0.508
2014-11-24 01:04:00,2194E-3,5C000000,-0724,0833,12140,027.3,045.4,0.477,734.1,01.19,0.508
2014-11-24 01:05:00,2147E-3,5C000000,-0724,0834,12271,027.3,045.4,0.476,734.1,01.19,0.508
2014-11-24 01:06:00,2074E-3,5C000000,-0724,0833,12129,027.3,045.4,0.477,734.1,01.19,0.508
2014-11-24 01:07:00,2137E-3,5C000000,-0724,0833,12210,027.3,045.4,0.476,734.1,01.19,0.508
2014-11-24 01:08:00,2092E-3,5C000000,-0724,0833,11921,027.3,045.4,0.477,734.1,01.19,0.508
2014-11-24 01:09:00,1993E-3,5C000000,-0724,0833,12123,027.3,045.4,0.477,734.1,01.19,0.508
2014-11-24 01:10:00,2167E-3,5C000000,-0724,0832,12221,027.3,045.4,0.477,734.1,01.19,0.508
2014-11-24 01:11:00,2076E-3,5C000000,-0724,0833,12153,027.3,045.4,0.477,734.1,01.19,0.508
2014-11-24 01:12:00,2196E-3,5C000000,-0724,0833,12169,027.3,045.4,0.477,734.1,01.19,0.508
2014-11-24 01:13:00,2108E-3,5C000000,-0724,0833,12300,027.3,045.4,0.477,734.1,01.19,0.508
2014-11-24 01:14:00,2114E-3,5C000000,-0724,0833,12146,027.3,045.4,0.477,734.1,01.19,0.508
2014-11-24 01:15:00,2128E-3,5C000000,-0724,0833,12033,027.3,045.4,0.477,734.1,01.19,0.508
2014-11-24 01:16:00,2087E-3,5C000000,-0724,0833,12216,027.3,045.4,0.477,734.1,01.19,0.508
2014-11-24 01:17:00,2021E-3,5C000000,-0724,0833,12225,027.3,045.4,0.477,734.0,01.19,0.508
2014-11-24 01:18:00,2040E-3,5C000000,-0724,0832,12205,027.3,045.4,0.477,734.0,01.19,0.508
2014-11-24 01:19:00,2165E-3,5C000000,-0724,0834,12188,027.3,045.4,0.477,734.0,01.19,0.508
2014-11-24 01:20:00,2130E-3,5C000000,-0724,0833,12236,027.3,045.4,0.476,734.0,01.19,0.508
2014-11-24 01:21:00,2163E-3,5C000000,-0724,0833,12255,027.3,045.4,0.477,734.0,01.19,0.508
2014-11-24 01:22:00,2096E-3,5C000000,-0724,0834,12196,027.2,045.4,0.476,734.0,01.19,0.508
2014-11-24 01:23:00,2215E-3,5C000000,-0724,0832,12025,027.2,045.4,0.477,734.0,01.19,0.508
2014-11-24 01:24:00,2104E-3,5C000000,-0724,0832,12103,027.2,045.4,0.477,734.0,01.19,0.508
2014-11-24 01:25:00,2118E-3,5C000000,-0724,0833,12185,027.3,045.4,0.477,734.0,01.19,0.508
2014-11-24 01:26:00,2183E-3,5C000000,-0724,0833,11987,027.2,045.4,0.476,734.0,01.19,0.508
2014-11-24 01:27:00,2168E-3,5C000000,-0724,0833,12212,027.2,045.4,0.477,734.0,01.19,0.508
2014-11-24 01:28:00,2156E-3,5C000000,-0724,0833,12249,027.2,045.4,0.476,734.0,01.19,0.508
2014-11-24 01:29:00,2122E-3,5C000000,-0724,0833,12237,027.2,045.4,0.477,734.0,01.19,0.508
2014-11-24 01:30:00,2048E-3,5C000000,-0724,0834,12310,027.2,045.4,0.476,733.9,01.19,0.508
2014-11-24 01:31:00,2088E-3,5C000000,-0724,0832,12079,027.2,045.4,0.477,733.9,01.19,0.508
2014-11-24 01:32:00,2226E-3,5C000000,-0724,0833,12185,027.2,045.4,0.476,733.9,01.19,0.508
2014-11-24 01:33:00,2122E-3,5C000000,-0724,0833,12222,027.2,045.4,0.477,733.9,01.19,0.508
2014-11-24 01:34:00,1969E-3,5C000000,-0724,0833,11960,027.2,045.4,0.477,733.9,01.19,0.508
2014-11-24 01:35:00,2101E-3,5C000000,-0724,0833,12285,027.2,045.4,0.477,733.9,01.19,0.508
2014-11-24 01:36:00,2179E-3,5C000000,-0724,0832,12171,027.2,045.4,0.477,733.9,01.19,0.508
2014-11-24 01:37:00,2100E-3,5C000000,-0724,0833,12035,027.2,045.4,0.477,733.9,01.19,0.508
2014-11-24 01:38:00,2043E-3,5C000000,-0724,0832,12371,027.2,045.4,0.477,734.0,01.19,0.508
2014-11-24 01:39:00,2054E-3,5C000000,-0724,0833,12150,027.2,045.4,0.477,734.0,01.19,0.508
2014-11-24 01:40:00,2079E-3,5C000000,-0724,0832,12189,027.2,045.4,0.477,734.0,01.19,0.508
2014-11-24 01:41:00,2024E-3,5C000000,-0724,0832,12178,027.2,045.4,0.477,734.0,01.19,0.508
2014-11-24 01:42:00,2207E-3,5C000000,-0724,0833,12249,027.2,045.4,0.477,734.0,01.19,0.508
2014-11-24 01:43:00,2089E-3,5C000000,-0724,0833,12150,027.2,045.4,0.477,734.0,01.19,0.508
2014-11-24 01:44:00,2088E-3,5C000000,-0724,0833,12185,027.2,045.4,0.477,734.0,01.19,0.508
2014-11-24 01:45:00,2129E-3,5C000000,-0724,0832,12141,027.2,045.4,0.477,734.0,01.19,0.508
2014-11-24 01:46:00,1998E-3,5C000000,-0724,0833,12262,027.2,045.4,0.477,734.0,01.19,0.508
2014-11-24 01:47:00,2130E-3,5C000000,-0724,0833,12022,027.2,045.4,0.477,734.0,01.19,0.508
2014-11-24 01:48:00,2054E-3,5C000000,-0724,0833,12159,027.2,045.4,0.477,734.0,01.19,0.508
2014-11-24 01:49:00,2138E-3,5C000000,-0724,0833,12206,027.2,045.4,0.477,734.0,01.19,0.508
2014-11-24 01:50:00,2085E-3,5C000000,-0724,0833,12175,027.2,045.4,0.477,734.0,01.19,0.508
2014-11-24 01:51:00,2212E-3,5C000000,-0724,0833,12038,027.2,045.4,0.477,734.0,01.19,0.508
2014-11-24 01:52:00,2130E-3,5C000000,-0724,0834,12222,027.2,045.4,0.477,734.0,01.19,0.508
2014-11-24 01:53:00,2117E-3,5C000000,-0724,0833,12188,027.2,045.4,0.477,734.0,01.19,0.508
2014-11-24 01:54:00,2021E-3,5C000000,-0724,0832,12182,027.2,045.4,0.477,734.0,01.19,0.508
2014-11-24 01:55:00,2105E-3,5C000000,-0724,0833,12282,027.2,045.4,0.477,734.0,01.19,0.508
2014-11-24 01:56:00,2034E-3,5C000000,-0724,0833,12194,027.2,045.4,0.477,734.0,01.19,0.508
2014-11-24 01:57:00,2117E-3,5C000000,-0724,0833,12306,027.2,045.4,0.477,734.0,01.19,0.508
2014-11-24 01:58:00,2008E-3,5C000000,-0724,0834,12289,027.2,045.4,0.477,734.0,01.19,0.508
2014-11-24 01:59:00,2074E-3,5C000000,-0724,0833,12033,027.2,045.4,0.477,734.0,01.19,0.508
2014-11-24 02:00:00,2051E-3,5C000000,-0724,0833,12198,027.2,045.4,0.477,734.1,01.19,0.508
2014-11-24 02:01:00,1991E-3,5C000000,-0724,0833,12201,027.2,045.4,0.477,734.1,01.19,0.508
2014-11-24 02:02:00,2059E-3,5C000000,-0724,0832,12072,027.2,045.4,0.477,734.1,01.19,0.508
2014-11-24 02:03:00,2115E-3,5C000000,-0724,0833,12238,027.1,045.4,0.477,734.1,01.19,0.508
2014-11-24 02:04:00,2053E-3,5C000000,-0724,0833,12218,027.1,045.4,0.477,734.2,01.18,0.508
2014-11-24 02:05:00,2058E-3,5C000000,-0724,0833,12145,027.2,045.4,0.477,734.2,01.18,0.508
2014-11-24 02:06:00,2148E-3,5C000000,-0724,0833,12225,027.1,045.4,0.477,734.2,01.18,0.508
2014-11-24 02:07:00,1936E-3,5C000000,-0724,0833,12156,027.1,045.4,0.477,734.2,01.18,0.508
2014-11-24 02:08:00,2053E-3,5C000000,-0724,0833,12138,027.1,045.4,0.477,734.2,01.18,0.508
2014-11-24 02:09:00,1975E-3,5C000000,-0724,0832,12198,027.1,045.4,0.477,734.2,01.18,0.508
2014-11-24 02:10:00,2012E-3,5C000000,-0724,0833,12225,027.1,045.4,0.477,734.2,01.18,0.508
2014-11-24 02:11:00,2119E-3,5C000000,-0724,0833,12252,027.1,045.4,0.477,734.2,01.18,0.508
2014-11-24 02:12:00,2124E-3,5C000000,-0724,0833,12175,027.1,045.4,0.477,734.2,01.18,0.508
2014-11-24 02:13:00,2067E-3,5C000000,-0724,0833,12136,027.1,045.4,0.477,734.2,01.18,0.508
2014-11-24 02:14:00,2128E-3,5C000000,-0724,0832,12041,027.1,045.4,0.477,734.2,01.18,0.508
2014-11-24 02:15:00,2083E-3,5C000000,-0724,0833,12190,027.1,045.4,0.477,734.1,01.18,0.508
2014-11-24 02:16:00,2220E-3,5C000000,-0724,0833,12237,027.1,045.4,0.477,734.2,01.18,0.508
2014-11-24 02:17:00,2230E-3,5C000000,-0724,0832,12223,027.1,045.4,0.477,734.2,01.18,0.508
2014-11-24 02:18:00,2146E-3,5C000000,-0724,0833,12157,027.1,045.4,0.477,734.1,01.19,0.508
2014-11-24 02:19:00,2255E-3,5C000000,-0724,0832,12239,027.1,045.4,0.477,734.1,01.19,0.508
2014-11-24 02:20:00,2011E-3,5C000000,-0724,0832,12150,027.1,045.4,0.477,734.1,01.19,0.508
2014-11-24 02:21:00,2079E-3,5C000000,-0724,0833,12255,027.1,045.4,0.477,734.2,01.18,0.508
2014-11-24 02:22:00,2073E-3,5C000000,-0724,0832,12089,027.1,045.4,0.477,734.1,01.19,0.508
2014-11-24 02:23:00,2045E-3,5C000000,-0724,0833,12251,027.1,045.4,0.477,734.1,01.19,0.508
2014-11-24 02:24:00,2162E-3,5C000000,-0724,0833,12060,027.1,045.4,0.477,734.0,01.19,0.508
2014-11-24 02:25:00,2049E-3,5C000000,-0724,0832,12056,027.1,045.4,0.477,734.0,01.19,0.508
2014-11-24 02:26:00,2186E-3,5C000000,-0724,0833,12151,027.1,045.4,0.477,734.0,01.19,0.508
2014-11-24 02:27:00,2003E-3,5C000000,-0724,0832,12192,027.1,045.4,0.477,734.0,01.19,0.508
2014-11-24 02:28:00,2027E-3,5C000000,-0724,0833,12277,027.1,045.4,0.477,734.0,01.19,0.508
2014-11-24 02:29:00,2168E-3,5C000000,-0724,0833,12091,027.1,045.4,0.477,734.0,01.19,0.508
2014-11-24 02:30:00,2025E-3,5C000000,-0724,0832,12120,027.1,045.4,0.477,733.9,01.19,0.508
2014-11-24 02:31:00,2078E-3,5C000000,-0724,0833,12202,027.1,045.4,0.477,733.8,01.19,0.508
2014-11-24 02:32:00,2199E-3,5C000000,-0724,0832,12211,027.1,045.4,0.477,733.8,01.19,0.508
2014-11-24 02:33:00,1962E-3,5C000000,-0724,0832,12375,027.1,045.4,0.477,733.8,01.19,0.508
2014-11-24 02:34:00,2093E-3,5C000000,-0724,0833,12130,027.1,045.4,0.477,733.8,01.19,0.508
2014-11-24 02:35:00,1992E-3,5C000000,-0724,0832,12083,027.1,045.4,0.477,733.8,01.19,0.508
2014-11-24 02:36:00,2087E-3,5C000000,-0724,0833,12185,027.0,045.4,0.477,733.8,01.19,0.508
2014-11-24 02:37:00,2154E-3,5C000000,-0724,0833,12251,027.1,045.4,0.477,733.8,01.19,0.508
2014-11-24 02:38:00,2049E-3,5C000000,-0724,0832,12154,027.1,045.4,0.477,733.8,01.19,0.508
2014-11-24 02:39:00,2146E-3,5C000000,-0724,0833,12102,027.1,045.4,0.477,733.9,01.19,0.508
2014-11-24 02:40:00,2071E-3,5C000000,-0724,0832,12103,027.1,045.4,0.477,733.9,01.19,0.508
2014-11-24 02:41:00,2013E-3,5C000000,-0724,0833,12199,027.1,045.4,0.477,733.9,01.19,0.508
2014-11-24 02:42:00,2027E-3,5C000000,-0724,0832,12230,027.1,045.4,0.477,733.9,01.19,0.508
2014-11-24 02:43:00,1985E-3,5C000000,-0724,0833,12183,027.1,045.4,0.477,733.8,01.19,0.508
2014-11-24 02:44:00,2174E-3,5C000000,-0724,0832,12123,027.1,045.4,0.477,733.8,01.19,0.508
2014-11-24 02:45:00,2139E-3,5C000000,-0724,0833,12207,027.1,045.4,0.477,733.8,01.19,0.508
2014-11-24 02:46:00,1961E-3,5C000000,-0724,0832,12166,027.0,045.4,0.477,733.8,01.19,0.508
2014-11-24 02:47:00,2098E-3,5C000000,-0724,0833,12161,027.1,045.4,0.477,733.8,01.19,0.508
2014-11-24 02:48:00,2126E-3,5C000000,-0724,0834,12079,027.1,045.4,0.477,733.8,01.19,0.508
2014-11-24 02:49:00,2104E-3,5C000000,-0724,0833,12153,027.0,045.4,0.477,733.8,01.19,0.508
2014-11-24 02:50:00,2145E-3,5C000000,-0724,0833,12177,027.0,045.4,0.477,733.8,01.19,0.508
2014-11-24 02:51:00,2151E-3,5C000000,-0724,0833,12140,027.1,045.4,0.477,733.8,01.19,0.508
2014-11-24 02:52:00,2159E-3,5C000000,-0724,0832,12033,027.0,045.4,0.477,733.8,01.19,0.508
2014-11-24 02:53:00,2027E-3,5C000000,-0724,0832,12106,027.0,045.4,0.477,733.7,01.19,0.508
2014-11-24 02:54:00,2153E-3,5C000000,-0724,0833,12180,027.0,045.4,0.477,733.7,01.19,0.508
2014-11-24 02:55:00,2129E-3,5C000000,-0724,0832,12045,027.0,045.4,0.477,733.7,01.19,0.508
2014-11-24 02:56:00,2068E-3,5C000000,-0724,0832,12277,027.0,045.4,0.477,733.8,01.19,0.508
2014-11-24 02:57:00,2053E-3,5C000000,-0724,0833,12169,027.0,045.4,0.477,733.7,01.19,0.508
2014-11-24 02:58:00,2199E-3,5C000000,-0724,0832,11979,027.0,045.4,0.477,733.7,01.19,0.508
2014-11-24 02:59:00,2049E-3,5C000000,-0724,0833,12185,027.0,045.4,0.477,733.7,01.19,0.508
2014-11-24 03:00:00,1907E-3,5C000000,-0724,0832,12181,027.0,045.4,0.477,733.7,01.19,0.508
2014-11-24 03:01:00,1952E-3,5C000000,-0724,0832,12184,027.0,045.4,0.477,733.7,01.19,0.508
2014-11-24 03:02:00,2060E-3,5C000000,-0724,0833,12142,027.0,045.4,0.477,733.7,01.19,0.508
2014-11-24 03:03:00,2026E-3,5C000000,-0724,0833,12122,027.0,045.4,0.477,733.7,01.19,0.508
2014-11-24 03:04:00,2046E-3,5C000000,-0724,0833,12264,027.0,045.4,0.477,733.8,01.19,0.508
2014-11-24 03:05:00,2131E-3,5C000000,-0724,0832,12212,027.0,045.4,0.477,733.8,01.19,0.508
2014-11-24 03:06:00,1988E-3,5C000000,-0724,0832,12317,027.0,045.4,0.477,733.8,01.19,0.508
2014-11-24 03:07:00,2091E-3,5C000000,-0724,0833,12168,027.0,045.4,0.477,733.8,01.19,0.508
2014-11-24 03:08:00,1913E-3,5C000000,-0724,0834,12150,027.0,045.4,0.477,733.8,01.19,0.508
2014-11-24 03:09:00,2001E-3,5C000000,-0724,0834,11984,027.0,045.4,0.477,733.8,01.19,0.508
2014-11-24 03:10:00,1963E-3,5C000000,-0724,0833,12139,027.0,045.4,0.477,733.8,01.19,0.508
2014-11-24 03:11:00,2076E-3,5C000000,-0724,0833,12232,027.0,045.4,0.477,733.8,01.19,0.508
2014-11-24 03:12:00,2059E-3,5C000000,-0724,0833,12272,027.0,045.4,0.477,733.8,01.19,0.508
2014-11-24 03:13:00,2059E-3,5C000000,-0724,0832,12172,027.0,045.4,0.477,733.8,01.19,0.508
2014-11-24 03:14:00,2005E-3,5C000000,-0724,0833,12256,027.0,045.4,0.477,733.8,01.19,0.508
2014-11-24 03:15:00,1985E-3,5C000000,-0724,0833,12124,027.0,045.4,0.477,733.8,01.19,0.508
2014-11-24 03:16:00,2119E-3,5C000000,-0724,0833,12107,027.0,045.4,0.477,733.8,01.19,0.508
2014-11-24 03:17:00,2114E-3,5C000000,-0724,0832,12163,027.0,045.4,0.477,733.8,01.19,0.508
2014-11-24 03:18:00,1894E-3,5C000000,-0724,0833,12233,027.0,045.4,0.477,733.8,01.19,0.508
2014-11-24 03:19:00,2004E-3,5C000000,-0724,0833,12242,027.0,045.4,0.477,733.8,01.19,0.508
2014-11-24 03:20:00,2038E-3,5C000000,-0724,0833,12144,027.0,045.4,0.477,733.8,01.19,0.508
2014-11-24 03:21:00,1978E-3,5C000000,-0724,0833,12149,027.0,045.4,0.477,733.8,01.19,0.508
2014-11-24 03:22:00,2268E-3,5C000000,-0724,0833,12144,027.0,045.4,0.477,733.8,01.19,0.508
2014-11-24 03:23:00,2156E-3,5C000000,-0724,0832,12273,027.0,045.4,0.477,733.7,01.19,0.508
2014-11-24 03:24:00,2039E-3,5C000000,-0724,0833,12012,027.0,045.4,0.477,733.7,01.19,0.508
2014-11-24 03:25:00,2048E-3,5C000000,-0724,0833,12150,027.0,045.4,0.477,733.7,01.19,0.508
2014-11-24 03:26:00,2012E-3,5C000000,-0724,0833,12363,027.0,045.4,0.477,733.7,01.19,0.508
2014-11-24 03:27:00,2013E-3,5C000000,-0724,0833,12085,027.0,045.4,0.477,733.7,01.19,0.508
2014-11-24 03:28:00,1957E-3,5C000000,-0724,0833,12156,026.9,045.4,0.477,733.7,01.19,0.508
2014-11-24 03:29:00,2179E-3,5C000000,-0724,0833,12415,026.9,045.4,0.477,733.7,01.19,0.508
2014-11-24 03:30:00,2026E-3,5C000000,-0724,0832,12219,026.9,045.4,0.477,733.7,01.19,0.508
2014-11-24 03:31:00,2194E-3,5C000000,-0724,0833,12137,026.9,045.4,0.477,733.7,01.19,0.508
2014-11-24 03:32:00,2087E-3,5C000000,-0724,0833,12126,026.9,045.4,0.477,733.7,01.19,0.508
2014-11-24 03:33:00,2012E-3,5C000000,-0724,0833,12151,026.9,045.4,0.477,733.7,01.19,0.508
2014-11-24 03:34:00,1896E-3,5C000000,-0724,0832,12138,026.9,045.4,0.477,733.6,01.19,0.508
2014-11-24 03:35:00,2185E-3,5C000000,-0724,0832,11970,026.9,045.4,0.477,733.7,01.19,0.508
2014-11-24 03:36:00,2122E-3,5C000000,-0724,0833,11983,026.9,045.4,0.477,733.7,01.19,0.508
2014-11-24 03:37:00,2043E-3,5C000000,-0724,0832,12263,026.9,045.4,0.477,733.7,01.19,0.508
2014-11-24 03:38:00,2013E-3,5C000000,-0724,0833,12319,026.9,045.4,0.477,733.7,01.19,0.508
2014-11-24 03:39:00,2033E-3,5C000000,-0724,0833,12174,026.9,045.4,0.477,733.7,01.19,0.508
2014-11-24 03:40:00,1919E-3,5C000000,-0724,0832,12300,026.9,045.4,0.477,733.6,01.19,0.508
2014-11-24 03:41:00,2041E-3,5C000000,-0724,0833,12219,026.9,045.4,0.477,733.6,01.19,0.508
2014-11-24 03:42:00,2082E-3,5C000000,-0724,0833,12266,026.9,045.4,0.477,733.6,01.19,0.508
2014-11-24 03:43:00,2176E-3,5C000000,-0724,0832,12231,026.9,045.4,0.477,733.6,01.19,0.508
2014-11-24 03:44:00,2116E-3,5C000000,-0724,0832,12279,026.9,045.4,0.477,733.6,01.19,0.508
2014-11-24 03:45:00,1818E-3,5C000000,-0724,0833,12218,026.9,045.4,0.477,733.7,01.19,0.508
2014-11-24 03:46:00,2121E-3,5C000000,-0724,0834,12230,026.9,045.4,0.477,733.7,01.19,0.508
2014-11-24 03:47:00,1944E-3,5C000000,-0724,0833,12288,026.9,045.4,0.477,733.7,01.19,0.508
2014-11-24 03:48:00,2122E-3,5C000000,-0724,0833,12107,026.9,045.4,0.477,733.6,01.19,0.508
2014-11-24 03:49:00,1937E-3,5C000000,-0724,0833,12239,026.9,045.4,0.477,733.7,01.19,0.508
2014-11-24 03:50:00,2128E-3,5C000000,-0724,0831,12213,026.9,045.4,0.477,733.7,01.19,0.508
2014-11-24 03:51:00,1882E-3,5C000000,-0724,0833,12184,026.9,045.4,0.477,733.7,01.19,0.508
2014-11-24 03:52:00,1886E-3,5C000000,-0724,0832,12149,026.9,045.4,0.477,733.7,01.19,0.508
2014-11-24 03:53:00,1957E-3,5C000000,-0724,0833,11973,026.9,045.4,0.477,733.7,01.19,0.508
2014-11-24 03:54:00,2102E-3,5C000000,-0724,0832,12401,026.9,045.4,0.477,733.7,01.19,0.508
2014-11-24 03:55:00,2048E-3,5C000000,-0724,0833,12117,026.9,045.4,0.477,733.6,01.19,0.508
2014-11-24 03:56:00,2044E-3,5C000000,-0724,0833,12098,026.9,045.4,0.477,733.7,01.19,0.508
2014-11-24 03:57:00,2164E-3,5C000000,-0724,0833,12175,026.9,045.4,0.477,733.6,01.19,0.508
2014-11-24 03:58:00,1912E-3,5C000000,-0724,0832,12116,026.9,045.4,0.477,733.6,01.19,0.508
2014-11-24 03:59:00,2117E-3,5C000000,-0724,0833,12075,026.9,045.4,0.477,733.6,01.19,0.508
2014-11-24 04:00:00,2008E-3,5C000000,-0724,0833,12244,026.9,045.4,0.477,733.7,01.19,0.508
2014-11-24 04:01:00,2198E-3,5C000000,-0724,0833,12288,026.9,045.4,0.477,733.7,01.19,0.508
2014-11-24 04:02:00,2158E-3,5C000000,-0724,0832,12103,026.9,045.4,0.477,733.7,01.19,0.508
2014-11-24 04:03:00,2146E-3,5C000000,-0724,0833,12194,026.9,045.4,0.477,733.7,01.19,0.508
2014-11-24 04:04:00,2009E-3,5C000000,-0724,0833,12081,026.9,045.4,0.477,733.8,01.19,0.508
2014-11-24 04:05:00,2026E-3,5C000000,-0724,0833,12258,026.9,045.4,0.478,733.8,01.19,0.508
2014-11-24 04:06:00,2018E-3,5C000000,-0724,0833,12217,026.9,045.4,0.477,733.8,01.19,0.508
2014-11-24 04:07:00,2102E-3,5C000000,-0724,0833,12504,026.8,045.4,0.477,733.8,01.19,0.508
2014-11-24 04:08:00,2016E-3,5C000000,-0724,0832,12128,026.9,045.4,0.477,733.8,01.19,0.508
2014-11-24 04:09:00,2085E-3,5C000000,-0724,0832,11992,026.8,045.4,0.478,733.8,01.19,0.508
2014-11-24 04:10:00,1898E-3,5C000000,-0724,0832,12163,026.8,045.4,0.477,733.8,01.19,0.508
2014-11-24 04:11:00,2037E-3,5C000000,-0724,0833,12197,026.8,045.4,0.477,733.8,01.19,0.508
2014-11-24 04:12:00,1961E-3,5C000000,-0724,0833,12219,026.8,045.4,0.478,733.7,01.19,0.508
2014-11-24 04:13:00,1980E-3,5C000000,-0724,0832,12241,026.9,045.4,0.477,733.7,01.19,0.508
2014-11-24 04:14:00,2000E-3,5C000000,-0724,0833,12009,026.8,045.4,0.477,733.8,01.19,0.508
2014-11-24 04:15:00,1962E-3,5C000000,-0724,0833,12187,026.9,045.4,0.477,733.8,01.19,0.508
2014-11-24 04:16:00,1917E-3,5C000000,-0724,0832,11969,026.9,045.4,0.477,733.7,01.19,0.508
2014-11-24 04:17:00,2078E-3,5C000000,-0724,0832,12048,026.8,045.4,0.477,733.7,01.19,0.508
2014-11-24 04:18:00,1982E-3,5C000000,-0724,0833,12123,026.8,045.4,0.477,733.7,01.19,0.508
2014-11-24 04:19:00,2095E-3,5C000000,-0724,0832,12172,026.8,045.4,0.477,733.7,01.19,0.508
2014-11-24 04:20:00,1968E-3,5C000000,-0724,0833,12264,026.8,045.4,0.477,733.7,01.19,0.508